GEFSNGP_con_prob3kmehi_294.txt.gz
EHI
0 0 0 0 0 0 0 0 1 1 1 1 4 7 8 11 14 17 18 19 19 18 19 23 25 27 31 33 34 35 36 35 32 28 27 26 25 24 20 14 11 10 8 6
0 0 0 0 0 0 0 1 2 3 3 3 5 6 9 12 15 16 18 19 19 18 20 23 25 26 27 29 30 31 33 33 30 27 26 25 24 23 19 14 11 10 8 5
0 0 0 0 1 1 1 2 4 6 8 9 9 10 11 12 14 16 18 20 20 20 21 23 25 26 26 27 26 26 28 29 30 29 27 25 23 21 17 14 13 11 8 5
0 0 0 0 1 2 2 4 6 9 13 15 16 17 17 16 18 18 19 21 21 21 22 24 25 27 29 29 27 25 25 27 30 31 28 24 21 18 15 13 13 11 8 6
0 0 0 0 1 1 3 4 7 12 16 17 19 22 22 22 24 24 23 24 23 22 25 27 28 30 32 31 28 26 26 26 29 31 28 23 19 16 14 12 11 10 8 6
0 0 0 0 0 1 2 3 6 11 14 17 18 19 20 23 27 28 27 26 25 25 28 30 29 29 31 29 27 25 24 25 26 27 27 23 19 16 15 13 11 11 9 6
0 0 0 0 0 0 1 2 5 8 12 14 16 16 18 21 26 30 29 28 28 27 29 28 25 24 25 25 24 22 22 23 23 23 22 21 19 17 15 14 12 12 11 9
0 0 0 0 0 0 1 4 7 9 12 14 15 16 19 22 25 27 27 27 28 29 27 25 22 20 19 20 21 21 21 22 21 19 18 19 19 17 16 14 13 13 12 12
1 0 1 1 1 1 3 7 10 12 13 15 16 17 20 21 21 21 23 24 25 26 25 21 18 15 14 15 17 18 20 21 20 18 18 18 18 18 16 14 13 13 13 13
2 2 3 3 3 4 7 10 11 12 13 14 14 15 16 16 16 16 17 18 19 19 19 16 13 10 8 9 13 15 17 20 19 18 18 18 19 19 17 15 14 13 13 13
5 4 4 5 5 7 10 12 11 11 12 11 9 9 10 11 12 13 14 13 13 12 12 13 12 10 8 8 10 13 15 18 18 18 17 18 18 18 15 13 12 12 12 12
7 6 5 5 5 7 9 10 10 9 8 6 4 4 5 7 9 10 11 11 8 7 9 11 12 11 10 9 10 11 13 15 17 18 17 17 17 14 10 7 7 7 9 9
6 6 5 4 5 7 7 7 6 5 4 3 3 3 4 5 7 9 10 10 7 6 7 9 11 11 10 9 10 10 11 13 15 17 16 16 15 12 7 4 3 2 3 4
4 4 4 5 6 6 5 5 3 3 2 3 4 4 4 5 7 8 9 8 7 6 7 8 9 9 9 8 9 9 11 12 13 13 14 14 14 12 9 6 3 1 0 1
4 4 4 5 5 4 3 2 2 2 3 4 5 6 6 6 7 7 7 7 6 7 8 8 8 8 8 7 8 8 10 11 11 10 10 12 12 11 9 7 4 2 1 0
4 4 5 5 4 2 1 2 2 3 3 3 4 6 6 6 6 6 6 6 6 6 7 7 7 7 6 6 7 7 9 9 9 7 8 10 10 9 8 6 5 4 2 1
4 4 4 3 2 1 0 1 2 3 3 3 4 6 6 5 4 5 6 6 6 6 6 6 6 5 5 6 7 7 9 9 7 6 6 6 6 6 6 6 5 4 2 1
3 3 2 1 1 1 1 1 2 3 3 3 4 6 6 4 3 4 4 4 4 5 6 6 6 4 4 6 7 8 9 9 7 5 4 3 2 3 4 5 5 4 2 1
2 1 1 0 1 2 2 2 2 3 3 3 4 5 5 4 3 3 3 3 3 4 5 6 5 4 4 6 7 9 9 8 6 4 2 1 1 1 2 3 3 3 2 1
1 0 0 0 1 2 2 2 2 2 3 3 3 4 4 3 3 3 3 3 3 3 4 4 3 3 3 4 6 8 8 6 4 3 1 1 1 0 0 1 2 2 2 1
0 0 0 0 0 1 1 1 1 1 2 3 3 3 3 3 3 3 3 3 3 3 2 2 1 1 1 2 4 5 5 4 3 2 1 0 0 0 0 0 1 1 1 0
0 0 0 0 0 0 0 0 0 1 2 3 3 3 3 3 3 3 3 3 3 2 1 0 0 0 1 2 3 3 3 2 1 1 0 0 0 0 0 0 0 0 0 0
0 0 0 0 0 0 0 0 0 1 2 3 2 2 3 3 3 3 3 3 2 1 0 0 0 0 1 2 3 3 2 1 0 0 0 0 0 0 0 0 0 0 0 0
1 1 0 0 0 0 0 0 0 1 3 2 1 1 3 3 3 3 3 2 1 0 0 0 0 0 1 2 2 2 1 0 0 0 0 0 0 0 0 0 0 0 0 0
2 2 1 0 0 0 0 0 0 1 2 2 1 1 2 3 3 3 3 1 0 0 0 0 0 0 1 1 1 1 0 0 0 0 0 0 0 0 0 0 0 0 0 0
3 2 1 0 0 0 0 0 0 1 1 1 0 1 2 3 3 3 2 1 0 0 0 0 0 0 0 0 0 0 0 0 0 0 0 0 0 0 0 0 0 0 0 0
3 2 1 0 0 0 0 0 0 0 0 0 0 1 2 3 3 3 1 0 0 0 0 0 0 0 0 0 0 0 0 0 0 0 0 0 0 0 0 0 0 0 0 0

GEFSNGP_con_prob3kmehi_300.txt.gz
EHI
0 0 0 0 0 0 0 0 0 0 0 1 3 6 6 5 4 5 7 8 9 8 7 6 6 7 8 7 8 10 12 15 17 18 17 14 11 7 6 5 5 6 6 6
0 0 0 0 0 0 0 0 0 0 0 1 4 6 7 6 4 4 6 8 9 9 8 7 7 7 7 6 9 12 15 17 18 18 16 11 8 7 6 6 6 6 6 6
0 0 0 0 0 0 0 0 0 0 1 2 4 6 6 5 5 6 7 9 9 8 8 8 8 6 5 6 10 15 17 17 17 16 13 10 9 9 9 9 8 7 6 5
0 0 0 0 0 0 0 0 0 0 1 3 5 5 4 2 4 8 11 12 10 7 6 7 8 7 6 9 13 16 17 15 13 11 10 11 12 13 13 12 10 7 6 6
0 0 0 0 0 0 0 0 0 1 2 4 6 5 2 1 4 8 12 13 12 9 6 7 8 8 8 10 13 15 15 12 9 8 9 11 14 15 15 12 9 7 6 6
0 0 0 0 0 0 0 0 0 2 3 5 6 4 3 2 4 6 9 10 11 12 10 8 7 9 9 9 10 11 11 10 9 9 9 12 13 15 15 12 9 7 6 5
0 0 0 0 0 0 0 0 1 3 5 7 6 4 3 3 4 5 6 8 9 11 10 7 6 7 9 8 7 7 8 9 10 11 11 12 14 15 15 13 9 7 6 6
0 0 0 0 0 0 0 1 2 5 6 7 6 4 4 4 6 7 7 7 7 7 7 6 4 5 6 7 6 6 7 8 10 12 13 14 14 15 15 14 10 9 8 8
0 0 0 0 0 0 0 1 3 5 5 4 4 3 4 6 8 9 7 6 5 5 6 6 5 4 4 5 6 7 7 7 9 12 13 15 15 15 15 15 12 11 11 10
0 0 1 1 1 1 2 3 4 4 3 1 1 2 3 5 6 7 6 5 5 5 7 7 6 5 4 4 5 7 7 7 7 9 12 14 14 14 15 14 13 13 13 12
0 0 2 2 2 2 4 5 5 3 1 0 0 1 2 2 3 4 5 5 5 4 5 6 5 5 5 3 4 5 6 6 6 8 10 12 13 13 13 13 11 11 12 13
0 0 1 1 2 2 4 5 4 2 1 0 0 0 0 0 1 3 5 6 5 4 4 3 3 3 3 2 2 4 6 6 7 8 10 12 11 11 10 9 7 6 8 9
0 0 0 1 2 3 3 4 3 1 0 0 0 0 0 0 1 3 6 7 5 4 4 3 1 1 2 2 2 3 5 6 7 9 10 12 12 10 9 7 4 2 3 3
0 0 0 2 3 3 3 3 2 1 0 0 0 0 0 0 1 3 6 7 6 6 5 4 3 1 1 3 3 3 4 6 8 9 11 12 13 11 9 7 5 3 1 0
0 0 0 2 3 3 3 3 3 1 0 0 0 0 0 0 1 3 5 6 6 6 6 6 4 2 2 4 5 5 5 7 8 10 11 12 12 12 10 8 6 5 2 1
1 1 1 2 3 3 3 3 3 2 0 0 0 0 0 1 2 3 4 4 4 5 6 6 6 4 3 4 5 6 6 7 9 10 11 12 12 12 10 7 5 4 3 1
2 2 2 2 2 2 2 2 2 1 0 0 0 0 1 3 4 4 4 3 3 4 5 5 5 5 3 2 3 4 4 6 8 9 11 11 11 10 8 5 3 3 2 1
1 1 1 1 1 1 1 1 1 0 0 0 0 0 2 4 4 4 3 3 3 4 4 4 4 4 3 1 1 3 3 4 5 7 9 9 9 7 5 3 1 2 2 1
0 0 0 0 0 0 0 0 0 0 0 0 0 1 3 4 4 3 3 3 3 3 4 3 3 3 3 2 2 3 3 3 4 6 7 7 7 5 3 1 0 1 1 0
0 0 0 0 0 0 0 0 0 0 0 0 0 1 2 3 3 3 3 3 3 3 3 2 2 2 3 3 3 3 3 3 4 5 5 6 6 5 2 0 0 0 0 0
0 0 0 0 0 0 0 0 0 0 0 0 0 0 1 2 3 3 3 3 3 3 2 1 0 1 2 3 3 3 3 3 4 5 4 5 5 3 1 0 0 0 0 0
0 0 0 0 0 0 0 0 0 0 0 0 0 0 0 1 2 3 3 3 2 1 1 0 0 0 1 2 2 2 2 2 3 4 3 3 3 1 0 0 0 0 0 0
0 0 0 0 0 0 0 0 0 0 0 0 0 0 0 0 1 1 2 2 1 0 0 0 0 0 0 1 1 1 1 1 2 3 2 2 1 0 0 0 0 0 0 0
0 0 0 0 0 0 0 0 0 0 0 0 0 0 0 0 0 0 1 1 0 0 0 0 0 0 0 0 0 0 0 0 1 1 1 1 0 0 0 0 0 0 0 0
0 0 0 0 0 0 0 0 0 0 0 0 0 0 0 0 0 0 0 0 0 0 0 0 0 0 0 0 0 0 0 0 0 0 0 0 0 0 0 0 0 0 0 0
0 0 0 0 0 0 0 0 0 0 0 0 0 0 0 0 0 0 0 0 0 0 0 0 0 0 0 0 0 0 0 0 0 0 0 0 0 0 0 0 0 0 0 0
0 0 0 0 0 0 0 0 0 0 0 0 0 0 0 0 0 0 0 0 0 0 0 0 0 0 0 0 0 0 0 0 0 0 0 0 0 0 0 0 0 0 0 0

GEFSNGP_con_prob3kmehi_306.txt.gz
EHI
0 0 0 0 0 0 0 0 0 0 0 0 0 2 6 10 12 11 9 9 9 11 13 15 16 18 20 23 24 25 25 26 27 30 33 34 32 30 27 21 17 17 18 18
0 0 0 0 0 0 0 0 0 0 0 0 0 2 6 10 12 12 10 10 10 12 14 16 18 19 20 22 25 28 28 29 31 33 34 33 29 26 22 17 14 15 16 16
0 0 0 0 0 0 0 0 0 0 0 0 1 3 6 11 13 14 13 12 11 12 15 17 20 22 23 25 29 32 31 30 32 34 33 30 26 21 17 14 13 14 14 14
0 0 0 0 0 0 0 0 0 0 0 1 2 4 8 11 15 16 15 14 14 14 15 18 22 23 24 28 31 31 29 27 27 29 29 27 24 20 17 16 15 15 14 14
0 0 0 0 0 0 0 0 0 1 2 2 3 4 7 13 15 16 17 17 17 17 17 20 23 22 23 27 28 27 24 22 23 26 26 24 21 20 19 19 18 17 17 17
0 0 0 0 0 0 0 0 1 2 3 3 3 5 10 16 17 18 19 19 19 18 19 22 24 23 22 22 23 22 21 20 23 25 25 23 21 19 19 19 20 20 20 21
0 0 0 0 0 0 1 3 3 3 4 5 6 10 17 21 21 22 21 18 17 18 22 25 24 23 22 20 20 20 21 21 23 25 24 22 20 19 17 17 19 20 21 22
0 0 0 0 1 1 3 7 8 7 7 9 11 16 22 25 24 23 20 17 15 18 23 24 22 22 22 19 17 18 20 21 22 23 22 20 20 19 17 16 15 15 17 19
0 0 0 1 2 3 5 9 10 10 11 12 15 20 25 26 24 21 19 17 17 17 20 22 20 19 19 18 16 16 18 19 21 20 20 19 20 19 17 15 13 11 12 13
2 1 2 4 5 6 8 9 10 10 12 14 16 21 24 24 22 20 19 18 16 15 17 20 20 17 15 15 16 17 17 18 19 18 18 19 19 18 17 15 12 11 10 10
4 3 4 7 10 12 13 12 11 11 13 15 18 20 21 20 18 17 16 15 13 11 13 17 18 15 12 12 15 17 17 16 16 16 17 17 16 15 14 12 10 9 9 8
5 6 8 11 14 16 16 14 13 13 15 17 19 19 18 17 15 13 11 10 8 6 7 10 12 10 7 7 11 15 15 14 14 15 16 15 14 13 11 9 6 6 6 5
6 8 11 12 14 15 15 14 14 15 16 17 17 16 14 13 11 10 9 8 7 5 5 7 7 5 3 4 7 9 11 11 12 13 14 14 13 13 11 8 5 3 3 3
6 9 12 13 13 14 14 13 13 12 13 13 12 10 9 8 7 7 8 9 9 7 6 6 5 3 2 3 4 5 7 8 9 11 12 12 12 13 12 11 9 7 5 3
5 7 10 12 13 13 13 11 8 8 8 9 8 5 4 4 4 5 8 10 11 9 6 5 5 4 3 3 3 4 5 6 6 7 8 9 10 11 13 14 14 12 9 6
5 6 8 10 11 10 8 6 5 4 6 6 5 4 3 3 4 5 7 9 11 9 6 6 6 5 4 3 3 4 5 5 5 5 5 5 7 9 11 13 14 14 11 8
5 5 5 6 6 6 4 3 3 4 5 7 6 4 4 4 6 6 7 8 9 7 6 6 6 5 4 3 2 2 4 4 4 4 4 4 6 8 10 11 11 12 11 8
4 4 4 4 5 5 5 4 4 5 7 8 8 6 5 6 7 8 7 7 6 4 4 4 5 4 4 4 3 2 2 4 4 3 4 5 6 8 9 10 10 10 9 7
4 4 4 5 6 7 8 7 6 7 8 9 9 7 6 6 7 8 7 6 4 3 2 3 3 4 5 5 4 3 2 2 3 4 5 6 7 8 9 10 9 9 7 6
5 5 6 6 8 9 9 9 8 9 9 10 9 7 6 6 7 7 6 5 4 3 3 2 3 3 4 4 3 3 3 2 3 4 6 6 6 7 8 9 8 7 6 6
6 6 6 7 8 9 9 9 9 9 10 9 8 7 6 6 6 6 5 4 3 3 3 3 4 4 3 2 2 3 3 3 3 4 4 5 6 6 6 7 7 6 7 8
6 5 5 7 8 9 9 10 10 10 10 9 8 7 6 5 5 5 5 4 3 3 4 5 6 5 3 2 2 2 2 2 2 2 3 3 4 5 6 6 6 6 7 9
7 7 7 8 8 9 9 10 10 10 10 9 8 6 4 4 4 5 6 5 3 3 5 6 4 2 1 1 2 2 1 1 1 1 2 2 2 3 5 5 5 5 6 8
10 11 10 9 9 10 10 10 10 11 10 9 6 4 3 3 4 5 6 5 3 4 5 4 2 0 0 1 2 1 0 0 0 1 2 1 1 2 3 4 4 4 5 6
11 11 10 9 9 10 10 10 10 9 8 6 4 3 3 3 4 5 6 5 3 3 3 2 0 0 0 1 1 1 0 0 0 1 1 1 0 1 2 3 3 3 3 3
8 8 8 8 9 9 8 8 8 7 6 5 4 4 3 3 4 5 6 6 4 3 3 1 0 0 0 1 0 0 0 0 0 0 0 0 0 0 1 3 3 3 3 2
6 6 6 7 9 9 7 6 6 6 5 5 5 5 4 4 5 6 6 6 5 4 3 2 1 0 0 1 0 0 0 0 0 0 0 0 0 0 1 2 3 3 2 1

GEFSNGP_con_prob3kmehi_312.txt.gz
EHI
0 0 0 0 0 0 0 0 0 0 1 4 9 14 18 23 28 31 32 34 39 43 46 48 47 45 42 40 40 41 43 44 43 42 42 43 44 44 44 41 38 38 36 32
0 0 0 0 0 0 0 0 0 1 3 5 9 14 19 24 27 29 32 35 40 44 46 47 48 47 45 43 40 39 41 42 42 42 42 42 41 40 38 36 35 34 32 29
0 0 0 0 0 0 1 1 1 2 3 6 9 14 20 25 26 28 32 38 43 45 46 47 46 47 47 44 40 39 40 40 39 39 40 39 38 35 33 32 30 29 29 28
0 0 0 0 0 1 3 3 3 3 3 6 9 14 21 26 27 28 33 40 45 45 46 46 44 43 44 41 39 38 39 38 37 36 37 37 36 34 33 31 29 27 26 26
0 0 0 0 0 1 3 4 4 5 6 8 10 14 20 26 29 30 34 40 42 41 41 43 40 38 37 36 36 36 36 36 35 33 33 34 34 33 33 31 28 27 25 23
0 0 0 0 0 1 1 3 5 8 11 10 10 14 20 27 30 32 34 37 37 35 35 37 36 33 32 33 34 35 34 34 34 32 30 29 28 28 28 26 26 25 22 19
0 0 0 1 1 2 5 7 8 11 13 13 14 18 23 28 31 32 34 35 35 33 33 34 35 34 32 32 34 34 32 31 31 28 25 23 23 24 24 24 24 23 21 19
0 1 2 4 5 7 11 11 11 13 15 17 21 25 27 29 31 33 34 35 35 35 36 36 34 33 31 30 32 31 27 26 27 25 22 21 22 23 23 23 21 20 20 20
2 3 6 8 10 12 13 13 13 14 15 18 23 27 29 30 32 33 33 34 34 34 35 35 31 27 27 27 29 29 25 23 25 24 22 22 23 23 22 21 19 18 18 18
5 7 10 13 14 14 14 14 14 14 15 18 24 29 32 33 33 31 30 31 32 31 31 30 25 21 21 23 25 27 26 24 24 23 22 23 22 21 20 19 18 17 17 17
9 11 14 17 16 14 14 14 15 17 18 21 27 31 33 34 32 27 25 27 29 28 26 24 20 16 15 18 21 23 24 22 21 20 21 22 21 18 16 16 16 15 15 15
12 13 15 16 14 12 12 12 14 18 21 24 28 31 32 32 29 24 23 24 24 23 21 19 16 13 12 14 16 18 19 17 16 17 18 18 17 14 12 12 11 9 9 10
14 13 12 12 11 11 11 11 14 17 20 22 25 27 28 27 24 22 21 20 19 17 16 15 13 11 9 10 12 15 15 13 13 14 14 14 14 13 11 10 7 5 4 3
13 12 11 11 11 11 11 11 12 14 14 15 17 20 21 21 19 19 17 16 15 13 11 11 10 8 6 6 8 11 10 9 10 11 11 11 12 12 11 10 9 8 5 3
11 11 11 11 11 10 9 9 9 8 8 8 9 12 15 16 15 14 13 11 11 11 11 11 9 7 6 6 8 9 7 6 6 6 7 8 9 9 10 10 11 11 9 7
9 10 10 10 10 9 6 5 4 4 5 5 5 7 10 11 11 11 10 9 9 10 11 13 11 9 8 9 10 9 6 3 2 2 3 4 5 6 7 8 8 9 10 11
8 8 8 8 8 7 4 2 1 2 4 4 4 5 7 8 8 9 9 8 7 8 9 11 11 9 8 10 9 8 4 2 1 1 2 3 4 4 5 5 6 6 8 10
6 6 6 6 6 5 4 2 2 3 4 4 4 5 6 7 9 9 9 7 6 7 8 9 7 6 7 8 7 5 3 1 1 2 2 3 3 3 4 5 5 5 6 7
5 5 6 6 5 3 4 4 4 6 7 6 6 6 7 9 10 10 9 7 7 8 9 8 4 3 4 4 4 4 3 2 2 2 2 1 1 2 3 5 6 6 6 6
5 5 5 5 3 3 4 5 6 8 8 7 7 8 9 10 10 10 9 8 8 9 9 6 2 1 2 2 1 2 3 3 3 3 2 1 0 1 3 5 6 5 5 6
6 5 5 4 4 4 6 7 8 9 9 8 9 10 10 10 10 10 9 8 8 7 6 3 2 1 2 2 1 1 2 2 2 3 3 2 1 1 3 5 5 4 4 5
7 7 7 7 7 8 9 9 9 10 10 11 11 11 10 10 10 10 9 7 6 5 3 1 1 2 3 3 1 0 1 1 1 1 2 2 2 2 3 4 4 3 4 4
9 10 10 10 10 11 11 10 10 11 11 11 11 11 10 10 9 8 6 5 3 2 1 1 0 1 2 3 2 1 0 0 0 0 1 1 1 1 1 1 1 2 3 3
10 10 10 10 11 11 10 10 10 10 10 10 10 10 10 9 7 5 3 2 1 0 0 0 0 0 1 2 2 1 0 0 0 0 0 0 0 0 0 0 0 1 2 2
9 8 8 8 9 9 9 9 8 8 8 8 8 9 8 6 3 2 1 1 0 1 1 1 0 0 1 1 1 0 0 0 0 0 0 1 1 0 0 0 0 1 2 2
7 6 6 7 7 8 8 6 5 5 6 7 7 6 6 4 1 0 1 2 2 2 2 2 1 1 0 0 0 0 0 1 1 1 1 2 2 1 0 0 0 1 1 2
7 6 6 5 6 6 5 4 4 4 5 5 5 4 4 3 1 0 1 2 3 3 3 3 2 2 1 0 0 0 1 2 2 2 2 3 2 1 0 0 0 0 0 1

GEFSNGP_con_prob3kmehi_318.txt.gz
EHI
0 0 0 0 0 0 1 1 1 3 4 4 8 11 13 17 20 19 22 28 34 38 38 33 27 23 21 19 16 16 19 21 22 23 22 19 18 20 21 22 20 15 12 11
0 0 0 0 0 1 2 2 2 3 4 6 10 12 14 17 19 19 22 26 31 35 34 29 24 19 18 18 18 18 19 19 20 22 22 20 19 22 23 22 20 16 12 11
0 0 0 0 1 4 5 5 4 5 6 9 12 15 15 16 20 22 24 25 26 28 28 25 21 17 16 16 18 20 19 18 19 21 22 21 20 23 24 22 18 14 11 9
0 0 0 0 1 5 8 8 8 7 9 11 14 16 17 18 22 26 27 26 24 22 22 21 19 17 15 15 17 20 20 18 18 20 21 22 21 21 21 18 14 11 9 8
0 0 0 0 1 3 6 7 8 10 12 13 14 15 16 19 22 25 26 25 21 19 19 17 16 15 14 13 15 17 18 18 18 19 21 22 21 19 18 15 13 12 11 9
0 0 0 0 0 1 2 3 5 9 12 13 13 13 13 17 20 22 22 22 20 19 18 14 13 14 13 12 12 13 15 16 18 19 21 21 19 16 15 14 14 14 13 12
0 0 0 0 0 0 0 1 3 7 9 10 10 12 14 17 20 21 21 19 18 18 16 12 11 12 13 11 10 9 10 13 16 18 19 19 17 14 13 14 14 13 13 13
0 0 0 1 2 1 1 3 4 6 7 9 12 16 18 18 20 22 22 19 17 17 15 12 10 11 12 11 9 8 8 11 14 16 18 17 15 13 14 14 13 13 14 15
1 1 2 4 4 4 4 7 8 8 10 14 17 20 20 18 19 21 20 18 18 17 15 12 11 10 10 10 9 8 7 9 11 13 15 15 14 13 14 15 14 14 16 17
2 4 5 6 8 8 8 10 11 11 15 19 22 22 20 19 19 19 17 16 16 16 14 12 11 10 9 8 8 7 7 8 9 10 10 10 11 12 14 15 15 16 17 17
3 4 6 7 9 10 10 11 11 13 17 21 23 22 19 19 19 16 14 13 12 12 12 11 11 10 8 7 7 8 8 8 8 7 5 6 7 9 11 12 13 15 15 15
1 2 4 6 8 9 10 9 10 12 16 20 21 20 18 17 16 12 11 10 10 8 8 8 8 7 6 4 5 7 7 6 5 4 3 3 4 6 8 8 9 10 10 10
0 1 3 5 7 7 8 7 8 10 14 18 19 17 16 15 12 10 9 8 7 5 4 4 4 3 2 2 3 5 4 2 2 2 3 3 3 4 5 6 6 5 4 3
1 3 5 5 6 6 7 6 7 10 13 15 16 15 14 12 10 9 9 8 6 4 4 3 2 1 0 0 1 1 1 0 0 1 1 2 2 3 3 3 4 4 2 0
3 5 6 5 5 6 6 6 8 10 11 11 11 10 10 8 6 6 7 7 6 6 5 4 2 1 0 0 0 0 0 0 0 0 0 1 1 1 1 1 2 3 3 2
5 6 5 4 4 5 6 6 6 7 6 6 5 5 5 5 3 4 4 4 5 6 6 5 4 3 1 1 1 1 1 0 0 0 0 0 0 0 0 0 1 2 3 4
6 5 5 4 3 3 3 3 3 3 2 2 2 3 3 3 3 3 3 3 4 4 5 5 4 3 2 2 2 2 2 1 0 0 0 0 0 0 0 0 0 1 2 3
5 4 3 3 2 1 1 1 1 1 1 1 1 1 2 2 2 3 4 4 4 5 4 3 2 1 2 2 2 3 3 2 1 0 0 0 0 0 0 0 0 0 1 1
3 3 2 1 1 0 0 0 0 1 1 1 0 0 1 1 1 2 4 5 5 5 3 2 1 1 1 0 1 2 2 2 1 0 0 0 0 0 0 0 0 0 0 0
1 1 1 0 0 0 0 0 0 1 2 1 0 0 0 0 0 2 3 4 3 3 3 2 1 1 0 0 0 1 1 1 0 0 0 0 0 0 0 0 0 0 0 0
1 1 0 0 0 0 0 0 0 1 1 1 0 0 0 0 1 2 3 3 3 3 3 2 1 1 0 0 0 0 0 0 0 0 0 0 0 0 0 0 0 0 0 0
2 2 1 0 0 0 0 0 0 0 0 0 0 1 1 1 2 3 3 3 3 3 2 1 0 0 0 0 0 0 0 0 0 0 0 0 0 0 0 0 0 0 0 0
2 2 1 0 1 1 0 0 0 1 1 0 1 3 4 3 3 4 4 3 2 1 1 0 0 0 0 0 0 0 0 0 0 0 0 0 0 0 0 0 0 0 0 0
2 2 1 0 1 2 1 0 1 2 1 1 2 4 5 4 4 5 4 3 1 0 0 0 0 0 0 0 0 0 0 0 0 0 0 0 0 0 0 0 0 0 0 0
1 1 0 0 1 2 2 1 1 2 2 2 3 4 4 4 4 3 3 1 0 0 0 0 0 0 0 0 0 0 0 0 0 0 0 0 0 0 0 0 0 0 0 0
0 0 0 0 0 1 2 3 3 4 4 2 3 4 3 3 2 1 1 0 0 0 0 0 0 0 0 0 0 0 0 0 0 0 0 0 0 0 0 0 0 0 0 0
0 0 0 0 0 1 2 3 5 6 5 4 3 3 3 1 0 0 0 0 0 0 0 0 0 0 0 0 0 0 0 0 0 0 0 0 0 0 0 0 0 0 0 0

GEFSNGP_con_prob3kmehi_324.txt.gz
EHI
0 0 0 0 0 0 0 0 0 1 3 3 4 4 5 7 10 11 12 12 12 12 14 14 11 10 10 10 8 8 9 10 6 3 2 4 6 8 9 9 8 6 6 6
0 0 0 0 0 0 0 0 1 2 3 3 4 4 6 8 10 11 11 12 13 12 13 13 12 12 13 12 11 10 10 9 6 4 2 3 5 7 7 7 6 5 4 5
0 0 0 0 0 0 0 1 2 2 2 3 4 4 6 8 10 11 12 13 13 12 11 11 11 14 15 15 13 13 11 9 7 5 3 3 6 8 7 6 5 4 3 4
0 0 0 0 0 0 1 2 2 2 3 4 5 6 7 8 9 11 13 13 12 10 8 8 10 13 15 14 13 13 11 8 8 8 6 6 8 10 9 7 5 4 4 4
0 0 0 0 0 0 1 1 1 2 4 5 5 7 8 8 9 10 12 12 10 8 7 7 8 11 13 13 12 11 8 7 8 10 10 10 10 11 12 10 7 6 6 5
0 0 0 0 0 0 0 0 1 3 4 4 3 4 6 8 9 9 9 9 8 7 7 8 8 10 11 11 10 9 6 6 7 9 11 11 9 9 11 12 10 9 8 7
0 0 0 0 0 0 0 0 1 3 3 2 2 2 5 8 10 9 8 8 8 7 8 9 9 10 10 10 9 8 7 7 7 8 9 8 7 6 8 10 11 10 9 10
0 0 0 0 0 0 0 0 1 1 1 2 3 4 5 7 9 9 9 10 9 9 9 9 10 10 9 9 9 8 9 9 9 8 7 5 4 4 6 7 9 9 10 9
0 0 0 0 0 0 0 0 0 0 0 2 4 5 4 5 7 8 10 11 10 9 9 9 9 8 8 8 7 8 8 9 8 7 6 4 3 4 6 6 7 9 9 9
0 0 1 1 1 1 1 1 1 0 0 2 4 4 4 4 6 8 10 10 9 8 7 7 6 6 6 6 6 6 7 7 6 6 5 4 3 4 5 6 6 8 8 8
0 0 1 2 2 2 2 2 2 1 1 4 5 6 6 6 8 9 9 9 8 7 5 5 4 4 5 5 5 5 5 5 5 5 5 4 3 3 4 4 4 5 6 6
0 0 2 3 3 3 3 3 3 2 3 5 8 9 8 8 9 9 8 8 7 6 4 4 4 4 4 4 4 3 3 4 4 5 5 5 4 3 3 3 3 3 4 4
0 1 2 3 3 3 3 3 3 3 4 6 8 9 9 8 7 6 6 5 5 4 4 4 4 3 3 3 2 1 1 2 3 3 3 3 3 3 3 3 3 3 3 2
1 2 3 3 3 3 3 3 3 3 4 5 6 7 7 6 5 4 4 4 4 4 4 4 3 3 2 1 1 0 0 1 1 2 1 1 2 2 2 2 2 2 1 1
1 2 3 3 3 3 2 2 2 3 3 4 4 4 5 5 4 3 3 3 3 3 3 3 2 1 1 0 0 0 0 0 0 0 0 0 1 1 1 1 1 1 0 0
1 2 2 2 2 2 2 1 2 3 3 3 3 3 4 4 3 1 1 2 2 2 1 1 1 0 0 0 0 0 0 0 0 0 0 0 0 0 0 0 0 0 0 0
0 1 1 1 1 1 2 2 3 3 3 3 3 3 2 2 1 0 0 1 1 1 0 0 0 0 0 0 0 0 0 0 0 0 0 0 0 0 0 0 0 0 0 0
1 1 0 0 0 1 3 3 3 3 3 3 2 1 1 0 0 0 0 0 0 0 0 0 0 0 0 0 0 0 0 0 0 0 0 0 0 0 0 0 0 0 0 0
2 1 0 0 0 1 2 2 2 2 2 1 1 0 0 0 0 0 0 0 0 0 0 0 0 0 0 0 0 0 0 0 0 0 0 0 0 0 0 0 0 0 0 0
1 1 0 0 0 1 1 1 1 1 1 0 0 0 0 0 0 0 0 0 0 0 0 0 0 0 0 0 0 0 0 0 0 0 0 0 0 0 0 0 0 0 0 0
0 0 0 0 0 0 0 0 0 0 0 0 0 0 0 0 0 0 0 0 0 0 0 0 0 0 0 0 0 0 0 0 0 0 0 0 0 0 0 0 0 0 0 0
0 0 0 0 0 0 0 0 0 0 0 0 0 0 0 0 0 0 0 0 0 0 0 0 0 0 0 0 0 0 0 0 0 0 0 0 0 0 0 0 0 0 0 0
0 0 0 0 0 0 0 0 0 0 0 0 0 0 0 0 0 0 0 0 0 0 0 0 0 0 0 0 0 0 0 0 0 0 0 0 0 0 0 0 0 0 0 0
0 0 0 0 0 0 0 0 0 0 0 0 0 0 0 0 0 0 0 0 0 0 0 0 0 0 0 0 0 0 0 0 0 0 0 0 0 0 0 0 0 0 0 0
0 0 0 0 0 0 0 0 0 0 0 0 1 1 1 0 0 0 0 0 0 0 0 0 0 0 0 0 0 0 0 0 0 0 0 0 0 0 0 0 0 0 0 0
0 0 0 0 0 0 0 0 0 0 0 0 1 2 1 0 0 0 0 0 0 0 0 0 0 0 0 0 0 0 0 0 0 0 0 0 0 0 0 0 0 0 0 0
0 0 0 0 0 0 0 0 0 0 0 0 1 1 1 0 0 0 0 0 0 0 0 0 0 0 0 0 0 0 0 0 0 0 0 0 0 0 0 0 0 0 0 0